iso_date,epoch_date,Year,Hour,Min,DOY,POS_DOY,Lat,Lon,BP,Ts,Ta,has_bp,has_ts,has_ta,BuoyID,Buoy_Type,Buoy_Owner,Logistics,Hemisphere
2013-10-09T00:00:00Z,1381276800,2013,0,0,282.0,282.0,81.0558,-151.5346,1019.8,42.3,-15.1,yes,yes,yes,300234010980680,ICEX,unknown,unknown,North
2013-10-09T01:00:28Z,1381280429,2013,1,0,282.042,282.042,81.0566,-151.5262,1019.4,42.3,-16.9,yes,yes,yes,300234010980680,ICEX,unknown,unknown,North
2013-10-09T01:59:31Z,1381283971,2013,2,0,282.083,282.083,81.0572,-151.5216,1019.5,42.3,-19.2,yes,yes,yes,300234010980680,ICEX,unknown,unknown,North
2013-10-09T03:00:00Z,1381287600,2013,3,0,282.125,282.125,81.058,-151.5206,1019.4,42.3,-20.8,yes,yes,yes,300234010980680,ICEX,unknown,unknown,North
2013-10-09T04:00:28Z,1381291229,2013,4,0,282.167,282.167,81.059,-151.5224,1019.2,42.3,-21.9,yes,yes,yes,300234010980680,ICEX,unknown,unknown,North
2013-10-09T04:59:31Z,1381294771,2013,5,0,282.208,282.208,81.0604,-151.5258,1019.0,42.3,-22.6,yes,yes,yes,300234010980680,ICEX,unknown,unknown,North
2013-10-09T06:00:00Z,1381298400,2013,6,0,282.25,282.25,81.0618,-151.53,1018.8,42.3,-23.8,yes,yes,yes,300234010980680,ICEX,unknown,unknown,North
2013-10-09T07:00:28Z,1381302029,2013,7,0,282.292,282.292,81.0632,-151.5338,1018.4,42.3,-25.2,yes,yes,yes,300234010980680,ICEX,unknown,unknown,North
2013-10-09T07:59:31Z,1381305571,2013,8,0,282.333,282.333,81.0646,-151.5364,1018.2,42.3,-25.7,yes,yes,yes,300234010980680,ICEX,unknown,unknown,North
2013-10-09T09:00:00Z,1381309200,2013,9,0,282.375,282.375,81.0656,-151.5388,1017.7,42.3,-25.2,yes,yes,yes,300234010980680,ICEX,unknown,unknown,North
2013-10-09T10:00:28Z,1381312829,2013,10,0,282.417,282.417,81.0664,-151.5414,1017.4,42.3,-23.7,yes,yes,yes,300234010980680,ICEX,unknown,unknown,North
2013-10-09T10:59:31Z,1381316371,2013,11,0,282.458,282.458,81.0668,-151.547,1016.9,42.3,-18.1,yes,yes,yes,300234010980680,ICEX,unknown,unknown,North
2013-10-09T12:00:00Z,1381320000,2013,12,0,282.5,282.5,81.067,-151.5562,1016.4,42.3,-15.8,yes,yes,yes,300234010980680,ICEX,unknown,unknown,North
2013-10-09T13:00:28Z,1381323629,2013,13,0,282.542,282.542,81.0672,-151.57,1016.0,42.3,-15.1,yes,yes,yes,300234010980680,ICEX,unknown,unknown,North
2013-10-09T13:59:31Z,1381327171,2013,14,0,282.583,282.583,81.0678,-151.5874,1015.8,42.3,-14.4,yes,yes,yes,300234010980680,ICEX,unknown,unknown,North
2013-10-09T15:00:00Z,1381330800,2013,15,0,282.625,282.625,81.069,-151.6064,1015.7,42.3,-13.8,yes,yes,yes,300234010980680,ICEX,unknown,unknown,North
2013-10-09T16:00:28Z,1381334429,2013,16,0,282.667,282.667,81.0708,-151.6246,1015.6,42.3,-13.3,yes,yes,yes,300234010980680,ICEX,unknown,unknown,North
2013-10-09T16:59:31Z,1381337971,2013,17,0,282.708,282.708,81.0732,-151.6424,1015.6,42.3,-12.6,yes,yes,yes,300234010980680,ICEX,unknown,unknown,North
2013-10-09T18:00:00Z,1381341600,2013,18,0,282.75,282.75,81.0756,-151.6582,1015.5,42.3,-12.1,yes,yes,yes,300234010980680,ICEX,unknown,unknown,North
2013-10-09T19:00:28Z,1381345229,2013,19,0,282.792,282.792,81.0782,-151.6726,1015.4,42.3,-11.9,yes,yes,yes,300234010980680,ICEX,unknown,unknown,North
2013-10-09T19:59:31Z,1381348771,2013,20,0,282.833,282.833,81.0812,-151.6862,1015.4,42.3,-11.5,yes,yes,yes,300234010980680,ICEX,unknown,unknown,North
2013-10-09T21:00:00Z,1381352400,2013,21,0,282.875,282.875,81.0838,-151.6978,1015.5,42.3,-11.3,yes,yes,yes,300234010980680,ICEX,unknown,unknown,North
2013-10-09T22:00:28Z,1381356029,2013,22,0,282.917,282.917,81.0864,-151.7078,1015.5,42.3,-10.9,yes,yes,yes,300234010980680,ICEX,unknown,unknown,North
2013-10-09T22:59:31Z,1381359571,2013,23,0,282.958,282.958,81.089,-151.7174,1015.5,42.3,-11.7,yes,yes,yes,300234010980680,ICEX,unknown,unknown,North
2013-10-10T00:00:00Z,1381363200,2013,0,0,283.0,283.0,81.0914,-151.7272,1015.4,42.3,-12.8,yes,yes,yes,300234010980680,ICEX,unknown,unknown,North
2013-10-10T01:00:28Z,1381366829,2013,1,0,283.042,283.042,81.0938,-151.7358,1015.4,42.3,-13.9,yes,yes,yes,300234010980680,ICEX,unknown,unknown,North
2013-10-10T01:59:31Z,1381370371,2013,2,0,283.083,283.083,81.0962,-151.7436,1015.3,42.3,-13.0,yes,yes,yes,300234010980680,ICEX,unknown,unknown,North
2013-10-10T03:00:00Z,1381374000,2013,3,0,283.125,283.125,81.0984,-151.751,1015.3,42.3,-12.4,yes,yes,yes,300234010980680,ICEX,unknown,unknown,North
2013-10-10T04:00:28Z,1381377629,2013,4,0,283.167,283.167,81.1008,-151.7602,1015.3,42.3,-11.7,yes,yes,yes,300234010980680,ICEX,unknown,unknown,North
2013-10-10T04:59:31Z,1381381171,2013,5,0,283.208,283.208,81.103,-151.77,1015.3,42.3,-10.9,yes,yes,yes,300234010980680,ICEX,unknown,unknown,North
2013-10-10T06:00:00Z,1381384800,2013,6,0,283.25,283.25,81.1056,-151.7798,1015.3,42.3,-10.5,yes,yes,yes,300234010980680,ICEX,unknown,unknown,North
2013-10-10T07:00:28Z,1381388429,2013,7,0,283.292,283.292,81.1082,-151.788,1015.5,42.3,-10.2,yes,yes,yes,300234010980680,ICEX,unknown,unknown,North
2013-10-10T07:59:31Z,1381391971,2013,8,0,283.333,283.333,81.111,-151.7948,1015.5,42.3,-10.0,yes,yes,yes,300234010980680,ICEX,unknown,unknown,North
2013-10-10T09:00:00Z,1381395600,2013,9,0,283.375,283.375,81.1136,-151.7998,1015.6,42.3,-9.6,yes,yes,yes,300234010980680,ICEX,unknown,unknown,North
2013-10-10T10:00:28Z,1381399229,2013,10,0,283.417,283.417,81.1164,-151.8024,1015.6,42.3,-9.4,yes,yes,yes,300234010980680,ICEX,unknown,unknown,North
2013-10-10T10:59:31Z,1381402771,2013,11,0,283.458,283.458,81.119,-151.8034,1015.9,42.3,-9.8,yes,yes,yes,300234010980680,ICEX,unknown,unknown,North
2013-10-10T12:00:00Z,1381406400,2013,12,0,283.5,283.5,81.1216,-151.8038,1016.1,42.3,-9.5,yes,yes,yes,300234010980680,ICEX,unknown,unknown,North
2013-10-10T13:00:28Z,1381410029,2013,13,0,283.542,283.542,81.1238,-151.805,1016.3,42.3,-9.3,yes,yes,yes,300234010980680,ICEX,unknown,unknown,North
2013-10-10T13:59:31Z,1381413571,2013,14,0,283.583,283.583,81.1258,-151.8084,1016.3,42.3,-9.2,yes,yes,yes,300234010980680,ICEX,unknown,unknown,North
2013-10-10T15:00:00Z,1381417200,2013,15,0,283.625,283.625,81.1276,-151.8156,1016.3,42.3,-9.1,yes,yes,yes,300234010980680,ICEX,unknown,unknown,North
2013-10-10T16:00:28Z,1381420829,2013,16,0,283.667,283.667,81.1294,-151.8244,1016.3,42.3,-8.7,yes,yes,yes,300234010980680,ICEX,unknown,unknown,North
2013-10-10T16:59:31Z,1381424371,2013,17,0,283.708,283.708,81.131,-151.835,1016.4,42.3,-9.0,yes,yes,yes,300234010980680,ICEX,unknown,unknown,North
2013-10-10T18:00:00Z,1381428000,2013,18,0,283.75,283.75,81.1328,-151.8458,1016.7,42.3,-11.2,yes,yes,yes,300234010980680,ICEX,unknown,unknown,North
2013-10-10T19:00:28Z,1381431629,2013,19,0,283.792,283.792,81.1348,-151.857,1016.9,42.3,-12.1,yes,yes,yes,300234010980680,ICEX,unknown,unknown,North
2013-10-10T19:59:31Z,1381435171,2013,20,0,283.833,283.833,81.1372,-151.8678,1017.1,42.3,-11.8,yes,yes,yes,300234010980680,ICEX,unknown,unknown,North
2013-10-10T21:00:00Z,1381438800,2013,21,0,283.875,283.875,81.1396,-151.877,1017.3,42.3,-11.2,yes,yes,yes,300234010980680,ICEX,unknown,unknown,North
2013-10-10T22:00:28Z,1381442429,2013,22,0,283.917,283.917,81.1422,-151.8842,1017.6,42.3,-10.8,yes,yes,yes,300234010980680,ICEX,unknown,unknown,North
2013-10-10T22:59:31Z,1381445971,2013,23,0,283.958,283.958,81.1452,-151.89,1017.9,42.3,-11.8,yes,yes,yes,300234010980680,ICEX,unknown,unknown,North
2013-10-11T00:00:00Z,1381449600,2013,0,0,284.0,284.0,81.148,-151.8938,1018.0,42.3,-13.1,yes,yes,yes,300234010980680,ICEX,unknown,unknown,North
2013-10-11T01:00:28Z,1381453229,2013,1,0,284.042,284.042,81.1506,-151.8976,1018.2,42.3,-13.7,yes,yes,yes,300234010980680,ICEX,unknown,unknown,North
2013-10-11T01:59:31Z,1381456771,2013,2,0,284.083,284.083,81.153,-151.903,1018.6,42.3,-13.1,yes,yes,yes,300234010980680,ICEX,unknown,unknown,North
2013-10-11T03:00:00Z,1381460400,2013,3,0,284.125,284.125,81.1552,-151.91,1018.7,42.3,-12.5,yes,yes,yes,300234010980680,ICEX,unknown,unknown,North
2013-10-11T04:00:28Z,1381464029,2013,4,0,284.167,284.167,81.1576,-151.919,1019.0,42.3,-12.4,yes,yes,yes,300234010980680,ICEX,unknown,unknown,North
2013-10-11T04:59:31Z,1381467571,2013,5,0,284.208,284.208,81.16,-151.9288,1019.3,42.3,-12.1,yes,yes,yes,300234010980680,ICEX,unknown,unknown,North
2013-10-11T06:00:00Z,1381471200,2013,6,0,284.25,284.25,81.1626,-151.9396,1019.5,42.3,-11.2,yes,yes,yes,300234010980680,ICEX,unknown,unknown,North
2013-10-11T07:00:28Z,1381474829,2013,7,0,284.292,284.292,81.1652,-151.95,1019.9,42.3,-10.8,yes,yes,yes,300234010980680,ICEX,unknown,unknown,North
2013-10-11T07:59:31Z,1381478371,2013,8,0,284.333,284.333,81.168,-151.96,1020.4,42.3,-10.4,yes,yes,yes,300234010980680,ICEX,unknown,unknown,North
2013-10-11T09:00:00Z,1381482000,2013,9,0,284.375,284.375,81.1708,-151.969,1020.8,42.3,-10.2,yes,yes,yes,300234010980680,ICEX,unknown,unknown,North
2013-10-11T10:00:28Z,1381485629,2013,10,0,284.417,284.417,81.1734,-151.9778,1021.3,42.3,-9.9,yes,yes,yes,300234010980680,ICEX,unknown,unknown,North
2013-10-11T10:59:31Z,1381489171,2013,11,0,284.458,284.458,81.1758,-151.986,1021.7,42.3,-9.6,yes,yes,yes,300234010980680,ICEX,unknown,unknown,North
2013-10-11T12:00:00Z,1381492800,2013,12,0,284.5,284.5,81.1784,-151.9938,1022.1,42.3,-9.5,yes,yes,yes,300234010980680,ICEX,unknown,unknown,North
2013-10-11T13:00:28Z,1381496429,2013,13,0,284.542,284.542,81.1806,-152.0014,1022.3,42.3,-9.4,yes,yes,yes,300234010980680,ICEX,unknown,unknown,North
2013-10-11T13:59:31Z,1381499971,2013,14,0,284.583,284.583,81.1828,-152.0104,1022.6,42.3,-9.4,yes,yes,yes,300234010980680,ICEX,unknown,unknown,North
2013-10-11T15:00:00Z,1381503600,2013,15,0,284.625,284.625,81.1844,-152.0212,1022.9,42.3,-9.5,yes,yes,yes,300234010980680,ICEX,unknown,unknown,North
2013-10-11T16:00:28Z,1381507229,2013,16,0,284.667,284.667,81.1858,-152.0354,1023.1,42.3,-9.4,yes,yes,yes,300234010980680,ICEX,unknown,unknown,North
2013-10-11T16:59:31Z,1381510771,2013,17,0,284.708,284.708,81.1874,-152.0506,1023.1,42.3,-9.2,yes,yes,yes,300234010980680,ICEX,unknown,unknown,North
2013-10-11T18:00:00Z,1381514400,2013,18,0,284.75,284.75,81.189,-152.067,1023.4,42.3,-9.2,yes,yes,yes,300234010980680,ICEX,unknown,unknown,North
2013-10-11T19:00:28Z,1381518029,2013,19,0,284.792,284.792,81.1908,-152.0828,1023.5,42.3,-9.4,yes,yes,yes,300234010980680,ICEX,unknown,unknown,North
2013-10-11T19:59:31Z,1381521571,2013,20,0,284.833,284.833,81.1926,-152.099,1023.8,42.3,-9.4,yes,yes,yes,300234010980680,ICEX,unknown,unknown,North
2013-10-11T21:00:00Z,1381525200,2013,21,0,284.875,284.875,81.1944,-152.1144,1023.9,42.3,-9.4,yes,yes,yes,300234010980680,ICEX,unknown,unknown,North
2013-10-11T22:00:28Z,1381528829,2013,22,0,284.917,284.917,81.1962,-152.13,1024.0,42.3,-9.5,yes,yes,yes,300234010980680,ICEX,unknown,unknown,North
2013-10-11T22:59:31Z,1381532371,2013,23,0,284.958,284.958,81.198,-152.1462,1024.4,42.3,-9.3,yes,yes,yes,300234010980680,ICEX,unknown,unknown,North
2013-10-12T00:00:00Z,1381536000,2013,0,0,285.0,285.0,81.1998,-152.1624,1024.4,42.3,-9.7,yes,yes,yes,300234010980680,ICEX,unknown,unknown,North
2013-10-12T01:00:28Z,1381539629,2013,1,0,285.042,285.042,81.2018,-152.179,1024.4,42.3,-10.3,yes,yes,yes,300234010980680,ICEX,unknown,unknown,North
2013-10-12T01:59:31Z,1381543171,2013,2,0,285.083,285.083,81.2036,-152.1962,1024.5,42.3,-10.2,yes,yes,yes,300234010980680,ICEX,unknown,unknown,North
2013-10-12T03:00:00Z,1381546800,2013,3,0,285.125,285.125,81.2056,-152.2148,1024.6,42.3,-10.5,yes,yes,yes,300234010980680,ICEX,unknown,unknown,North
2013-10-12T04:00:28Z,1381550429,2013,4,0,285.167,285.167,81.208,-152.2374,1024.6,42.3,-10.8,yes,yes,yes,300234010980680,ICEX,unknown,unknown,North
2013-10-12T04:59:31Z,1381553971,2013,5,0,285.208,285.208,81.2106,-152.262,1024.9,42.3,-12.0,yes,yes,yes,300234010980680,ICEX,unknown,unknown,North
2013-10-12T06:00:00Z,1381557600,2013,6,0,285.25,285.25,81.2134,-152.2874,1025.1,42.3,-12.7,yes,yes,yes,300234010980680,ICEX,unknown,unknown,North
2013-10-12T07:00:28Z,1381561229,2013,7,0,285.292,285.292,81.2164,-152.3128,1025.4,42.3,-12.9,yes,yes,yes,300234010980680,ICEX,unknown,unknown,North
2013-10-12T07:59:31Z,1381564771,2013,8,0,285.333,285.333,81.2194,-152.3378,1025.5,42.3,-12.9,yes,yes,yes,300234010980680,ICEX,unknown,unknown,North
2013-10-12T09:00:00Z,1381568400,2013,9,0,285.375,285.375,81.2224,-152.3612,1025.6,42.3,-12.7,yes,yes,yes,300234010980680,ICEX,unknown,unknown,North
2013-10-12T10:00:28Z,1381572029,2013,10,0,285.417,285.417,81.2252,-152.3836,1025.6,42.3,-12.5,yes,yes,yes,300234010980680,ICEX,unknown,unknown,North
2013-10-12T10:59:31Z,1381575571,2013,11,0,285.458,285.458,81.2278,-152.4056,1025.8,42.3,-13.2,yes,yes,yes,300234010980680,ICEX,unknown,unknown,North
2013-10-12T12:00:00Z,1381579200,2013,12,0,285.5,285.5,81.2302,-152.4276,1025.6,42.3,-14.6,yes,yes,yes,300234010980680,ICEX,unknown,unknown,North
2013-10-12T13:00:28Z,1381582829,2013,13,0,285.542,285.542,81.2322,-152.4502,1025.5,42.3,-16.1,yes,yes,yes,300234010980680,ICEX,unknown,unknown,North
2013-10-12T13:59:31Z,1381586371,2013,14,0,285.583,285.583,81.2342,-152.4748,1025.4,42.3,-17.0,yes,yes,yes,300234010980680,ICEX,unknown,unknown,North
2013-10-12T15:00:00Z,1381590000,2013,15,0,285.625,285.625,81.2362,-152.5014,1025.6,42.3,-19.1,yes,yes,yes,300234010980680,ICEX,unknown,unknown,North
2013-10-12T16:00:28Z,1381593629,2013,16,0,285.667,285.667,81.2382,-152.5278,1025.6,42.3,-20.2,yes,yes,yes,300234010980680,ICEX,unknown,unknown,North
2013-10-12T16:59:31Z,1381597171,2013,17,0,285.708,285.708,81.2406,-152.553,1025.3,42.3,-20.5,yes,yes,yes,300234010980680,ICEX,unknown,unknown,North
2013-10-12T18:00:00Z,1381600800,2013,18,0,285.75,285.75,81.2428,-152.5782,1025.2,42.3,-20.5,yes,yes,yes,300234010980680,ICEX,unknown,unknown,North
2013-10-12T19:00:28Z,1381604429,2013,19,0,285.792,285.792,81.2452,-152.6006,1025.1,42.3,-20.3,yes,yes,yes,300234010980680,ICEX,unknown,unknown,North
2013-10-12T19:59:31Z,1381607971,2013,20,0,285.833,285.833,81.2474,-152.6202,1024.9,42.3,-20.4,yes,yes,yes,300234010980680,ICEX,unknown,unknown,North
2013-10-12T21:00:00Z,1381611600,2013,21,0,285.875,285.875,81.2492,-152.637,1024.8,42.3,-21.2,yes,yes,yes,300234010980680,ICEX,unknown,unknown,North
2013-10-12T22:00:28Z,1381615229,2013,22,0,285.917,285.917,81.2506,-152.6504,1024.9,42.3,-21.9,yes,yes,yes,300234010980680,ICEX,unknown,unknown,North
2013-10-12T22:59:31Z,1381618771,2013,23,0,285.958,285.958,81.2518,-152.6628,1024.6,42.3,-22.6,yes,yes,yes,300234010980680,ICEX,unknown,unknown,North
2013-10-13T00:00:00Z,1381622400,2013,0,0,286.0,286.0,81.253,-152.6768,1024.3,42.3,-22.8,yes,yes,yes,300234010980680,ICEX,unknown,unknown,North
2013-10-13T01:00:28Z,1381626029,2013,1,0,286.042,286.042,81.2542,-152.6912,1024.1,42.3,-23.3,yes,yes,yes,300234010980680,ICEX,unknown,unknown,North
2013-10-13T01:59:31Z,1381629571,2013,2,0,286.083,286.083,81.2552,-152.705,1024.1,42.3,-23.8,yes,yes,yes,300234010980680,ICEX,unknown,unknown,North
2013-10-13T03:00:00Z,1381633200,2013,3,0,286.125,286.125,81.2562,-152.7212,1023.8,42.3,-24.1,yes,yes,yes,300234010980680,ICEX,unknown,unknown,North
2013-10-13T04:00:28Z,1381636829,2013,4,0,286.167,286.167,81.2574,-152.736,1023.6,42.3,-24.5,yes,yes,yes,300234010980680,ICEX,unknown,unknown,North
2013-10-13T04:59:31Z,1381640371,2013,5,0,286.208,286.208,81.2586,-152.751,1023.4,42.3,-25.0,yes,yes,yes,300234010980680,ICEX,unknown,unknown,North
2013-10-13T06:00:00Z,1381644000,2013,6,0,286.25,286.25,81.26,-152.7656,1023.3,42.3,-25.8,yes,yes,yes,300234010980680,ICEX,unknown,unknown,North
2013-10-13T07:00:28Z,1381647629,2013,7,0,286.292,286.292,81.2616,-152.7794,1023.3,42.3,-25.9,yes,yes,yes,300234010980680,ICEX,unknown,unknown,North
2013-10-13T07:59:31Z,1381651171,2013,8,0,286.333,286.333,81.2632,-152.7924,1023.2,42.3,-26.4,yes,yes,yes,300234010980680,ICEX,unknown,unknown,North
2013-10-13T09:00:00Z,1381654800,2013,9,0,286.375,286.375,81.2648,-152.804,1023.2,42.3,-26.8,yes,yes,yes,300234010980680,ICEX,unknown,unknown,North
2013-10-13T10:00:28Z,1381658429,2013,10,0,286.417,286.417,81.2664,-152.8148,1023.1,42.3,-26.8,yes,yes,yes,300234010980680,ICEX,unknown,unknown,North
2013-10-13T10:59:31Z,1381661971,2013,11,0,286.458,286.458,81.268,-152.8258,1022.9,42.3,-27.0,yes,yes,yes,300234010980680,ICEX,unknown,unknown,North
2013-10-13T12:00:00Z,1381665600,2013,12,0,286.5,286.5,81.2696,-152.8358,1022.8,42.3,-26.9,yes,yes,yes,300234010980680,ICEX,unknown,unknown,North
2013-10-13T13:00:28Z,1381669229,2013,13,0,286.542,286.542,81.271,-152.845,1022.5,42.3,-26.7,yes,yes,yes,300234010980680,ICEX,unknown,unknown,North
2013-10-13T13:59:31Z,1381672771,2013,14,0,286.583,286.583,81.2726,-152.8542,1022.3,42.3,-27.0,yes,yes,yes,300234010980680,ICEX,unknown,unknown,North
2013-10-13T15:00:00Z,1381676400,2013,15,0,286.625,286.625,81.274,-152.863,1022.1,42.3,-27.4,yes,yes,yes,300234010980680,ICEX,unknown,unknown,North
2013-10-13T16:00:28Z,1381680029,2013,16,0,286.667,286.667,81.2756,-152.8724,1022.1,42.3,-27.8,yes,yes,yes,300234010980680,ICEX,unknown,unknown,North
2013-10-13T16:59:31Z,1381683571,2013,17,0,286.708,286.708,81.2772,-152.8812,1021.8,42.3,-27.9,yes,yes,yes,300234010980680,ICEX,unknown,unknown,North
2013-10-13T18:00:00Z,1381687200,2013,18,0,286.75,286.75,81.279,-152.8906,1021.8,42.3,-27.2,yes,yes,yes,300234010980680,ICEX,unknown,unknown,North
2013-10-13T19:00:28Z,1381690829,2013,19,0,286.792,286.792,81.281,-152.9002,1021.4,42.3,-26.4,yes,yes,yes,300234010980680,ICEX,unknown,unknown,North
2013-10-13T19:59:31Z,1381694371,2013,20,0,286.833,286.833,81.2832,-152.9106,1021.2,42.3,-25.9,yes,yes,yes,300234010980680,ICEX,unknown,unknown,North
2013-10-13T21:00:00Z,1381698000,2013,21,0,286.875,286.875,81.2856,-152.9214,1021.0,42.3,-25.1,yes,yes,yes,300234010980680,ICEX,unknown,unknown,North
2013-10-13T22:00:28Z,1381701629,2013,22,0,286.917,286.917,81.2882,-152.935,1020.7,42.3,-24.5,yes,yes,yes,300234010980680,ICEX,unknown,unknown,North
2013-10-13T22:59:31Z,1381705171,2013,23,0,286.958,286.958,81.291,-152.9502,1020.2,42.3,-23.4,yes,yes,yes,300234010980680,ICEX,unknown,unknown,North
2013-10-14T00:00:00Z,1381708800,2013,0,0,287.0,287.0,81.2938,-152.9662,1019.6,42.3,-22.7,yes,yes,yes,300234010980680,ICEX,unknown,unknown,North
2013-10-14T01:00:28Z,1381712429,2013,1,0,287.042,287.042,81.2968,-152.984,1018.8,42.3,-22.1,yes,yes,yes,300234010980680,ICEX,unknown,unknown,North
2013-10-14T01:59:31Z,1381715971,2013,2,0,287.083,287.083,81.2998,-153.003,1018.2,42.3,-22.2,yes,yes,yes,300234010980680,ICEX,unknown,unknown,North
2013-10-14T03:00:00Z,1381719600,2013,3,0,287.125,287.125,81.303,-153.0228,1017.7,42.3,-22.3,yes,yes,yes,300234010980680,ICEX,unknown,unknown,North
2013-10-14T04:00:28Z,1381723229,2013,4,0,287.167,287.167,81.3062,-153.0452,1017.0,42.3,-22.0,yes,yes,yes,300234010980680,ICEX,unknown,unknown,North
2013-10-14T04:59:31Z,1381726771,2013,5,0,287.208,287.208,81.3096,-153.071,1016.1,42.3,-20.9,yes,yes,yes,300234010980680,ICEX,unknown,unknown,North
2013-10-14T06:00:00Z,1381730400,2013,6,0,287.25,287.25,81.3134,-153.1004,1015.3,42.3,-19.8,yes,yes,yes,300234010980680,ICEX,unknown,unknown,North
2013-10-14T07:00:28Z,1381734029,2013,7,0,287.292,287.292,81.3174,-153.1322,1014.0,42.3,-18.6,yes,yes,yes,300234010980680,ICEX,unknown,unknown,North
2013-10-14T07:59:31Z,1381737571,2013,8,0,287.333,287.333,81.322,-153.167,1012.8,42.3,-17.4,yes,yes,yes,300234010980680,ICEX,unknown,unknown,North
2013-10-14T09:00:00Z,1381741200,2013,9,0,287.375,287.375,81.3266,-153.2006,1012.1,42.3,-16.3,yes,yes,yes,300234010980680,ICEX,unknown,unknown,North
2013-10-14T10:00:28Z,1381744829,2013,10,0,287.417,287.417,81.3314,-153.2314,1011.2,42.3,-15.1,yes,yes,yes,300234010980680,ICEX,unknown,unknown,North
2013-10-14T10:59:31Z,1381748371,2013,11,0,287.458,287.458,81.3364,-153.2582,1010.5,42.3,-14.2,yes,yes,yes,300234010980680,ICEX,unknown,unknown,North
2013-10-14T12:00:00Z,1381752000,2013,12,0,287.5,287.5,81.3412,-153.2774,1009.5,42.3,-13.3,yes,yes,yes,300234010980680,ICEX,unknown,unknown,North
2013-10-14T13:00:28Z,1381755629,2013,13,0,287.542,287.542,81.346,-153.2892,1008.9,42.3,-12.2,yes,yes,yes,300234010980680,ICEX,unknown,unknown,North
2013-10-14T13:59:31Z,1381759171,2013,14,0,287.583,287.583,81.3504,-153.2918,1008.3,42.3,-11.0,yes,yes,yes,300234010980680,ICEX,unknown,unknown,North
2013-10-14T15:00:00Z,1381762800,2013,15,0,287.625,287.625,81.3548,-153.2868,1008.2,42.3,-9.4,yes,yes,yes,300234010980680,ICEX,unknown,unknown,North
2013-10-14T16:00:28Z,1381766429,2013,16,0,287.667,287.667,81.359,-153.2762,1008.6,42.3,-9.4,yes,yes,yes,300234010980680,ICEX,unknown,unknown,North
2013-10-14T16:59:31Z,1381769971,2013,17,0,287.708,287.708,81.363,-153.2594,1009.1,42.3,-9.8,yes,yes,yes,300234010980680,ICEX,unknown,unknown,North
2013-10-14T18:00:00Z,1381773600,2013,18,0,287.75,287.75,81.367,-153.2402,1009.7,42.3,-9.8,yes,yes,yes,300234010980680,ICEX,unknown,unknown,North
2013-10-14T19:00:28Z,1381777229,2013,19,0,287.792,287.792,81.3706,-153.2168,1010.4,42.3,-10.0,yes,yes,yes,300234010980680,ICEX,unknown,unknown,North
2013-10-14T19:59:31Z,1381780771,2013,20,0,287.833,287.833,81.374,-153.19,1011.5,42.3,-10.5,yes,yes,yes,300234010980680,ICEX,unknown,unknown,North
2013-10-14T21:00:00Z,1381784400,2013,21,0,287.875,287.875,81.3772,-153.16,1012.4,42.3,-10.7,yes,yes,yes,300234010980680,ICEX,unknown,unknown,North
2013-10-14T22:00:28Z,1381788029,2013,22,0,287.917,287.917,81.38,-153.1292,1013.2,42.3,-15.0,yes,yes,yes,300234010980680,ICEX,unknown,unknown,North
2013-10-14T22:59:31Z,1381791571,2013,23,0,287.958,287.958,81.3814,-153.1044,1013.9,42.3,-17.5,yes,yes,yes,300234010980680,ICEX,unknown,unknown,North
2013-10-15T00:00:00Z,1381795200,2013,0,0,288.0,288.0,81.3824,-153.0848,1014.3,42.3,-19.1,yes,yes,yes,300234010980680,ICEX,unknown,unknown,North
2013-10-15T01:00:28Z,1381798829,2013,1,0,288.042,288.042,81.3834,-153.0686,1014.9,42.3,-20.3,yes,yes,yes,300234010980680,ICEX,unknown,unknown,North
2013-10-15T01:59:31Z,1381802371,2013,2,0,288.083,288.083,81.3842,-153.0552,1015.3,42.3,-21.6,yes,yes,yes,300234010980680,ICEX,unknown,unknown,North
2013-10-15T03:00:00Z,1381806000,2013,3,0,288.125,288.125,81.3848,-153.047,1015.7,42.3,-22.9,yes,yes,yes,300234010980680,ICEX,unknown,unknown,North
2013-10-15T04:00:28Z,1381809629,2013,4,0,288.167,288.167,81.3852,-153.0428,1016.2,42.3,-23.5,yes,yes,yes,300234010980680,ICEX,unknown,unknown,North
2013-10-15T04:59:31Z,1381813171,2013,5,0,288.208,288.208,81.3858,-153.0392,1016.5,42.3,-24.2,yes,yes,yes,300234010980680,ICEX,unknown,unknown,North
2013-10-15T06:00:00Z,1381816800,2013,6,0,288.25,288.25,81.3864,-153.0362,1016.7,42.3,-24.8,yes,yes,yes,300234010980680,ICEX,unknown,unknown,North
2013-10-15T07:00:28Z,1381820429,2013,7,0,288.292,288.292,81.3872,-153.0328,1017.3,42.3,-25.6,yes,yes,yes,300234010980680,ICEX,unknown,unknown,North
2013-10-15T07:59:31Z,1381823971,2013,8,0,288.333,288.333,81.3878,-153.0282,1017.7,42.3,-25.9,yes,yes,yes,300234010980680,ICEX,unknown,unknown,North
2013-10-15T09:00:00Z,1381827600,2013,9,0,288.375,288.375,81.3886,-153.0232,1018.0,42.3,-25.9,yes,yes,yes,300234010980680,ICEX,unknown,unknown,North
2013-10-15T10:00:28Z,1381831229,2013,10,0,288.417,288.417,81.3892,-153.02,1018.0,42.3,-24.4,yes,yes,yes,300234010980680,ICEX,unknown,unknown,North
2013-10-15T10:59:31Z,1381834771,2013,11,0,288.458,288.458,81.3896,-153.0184,1018.1,42.3,-23.1,yes,yes,yes,300234010980680,ICEX,unknown,unknown,North
2013-10-15T12:00:00Z,1381838400,2013,12,0,288.5,288.5,81.39,-153.0184,1018.2,42.3,-22.0,yes,yes,yes,300234010980680,ICEX,unknown,unknown,North
2013-10-15T13:00:28Z,1381842029,2013,13,0,288.542,288.542,81.3902,-153.0192,1018.2,42.3,-20.3,yes,yes,yes,300234010980680,ICEX,unknown,unknown,North
2013-10-15T13:59:31Z,1381845571,2013,14,0,288.583,288.583,81.3904,-153.0214,1018.2,42.3,-18.6,yes,yes,yes,300234010980680,ICEX,unknown,unknown,North
2013-10-15T15:00:00Z,1381849200,2013,15,0,288.625,288.625,81.3906,-153.025,1018.4,42.3,-17.5,yes,yes,yes,300234010980680,ICEX,unknown,unknown,North
2013-10-15T16:00:28Z,1381852829,2013,16,0,288.667,288.667,81.3906,-153.0278,1018.5,42.3,-16.4,yes,yes,yes,300234010980680,ICEX,unknown,unknown,North